SCP
0 0 0 0 0 0 0 0 0 0 0 0 0 0 0 0 0 0 0 0 0 0 0 0 0 0 0 0 0 0 0 0 0 0 0 0 0 0 0 0 0 0 0
0 0 0 0 0 0 0 0 0 0 0 0 0 0 0 0 0 0 0 0 0 0 0 0 0 0 0 0 0 0 0 0 0 0 0 0 0 0 0 0 0 0 0
0 0 0 0 0 0 0 0 0 0 0 0 0 0 0 0 0 0 0 0 0 0 0 0 0 0 0 0 0 0 0 0 0 0 0 0 0 0 0 0 0 0 0
0 0 0 0 0 0 0 0 0 0 0 0 0 0 0 0 0 0 0 0 0 0 0 0 0 0 0 0 0 0 0 0 0 0 0 0 0 0 0 0 0 0 0
0 0 0 0 0 0 0 0 0 0 0 0 0 0 0 0 0 0 0 0 0 0 0 0 0 0 0 0 0 0 0 0 0 0 0 0 0 0 0 0 0 0 0
0 0 0 0 0 0 0 0 0 0 0 0 0 0 0 0 0 0 0 0 0 0 0 0 0 0 0 0 0 0 0 0 0 0 0 0 0 0 0 0 0 0 0
0 0 0 0 0 0 0 0 0 0 0 0 0 0 0 0 0 0 0 0 0 0 0 0 0 0 0 0 0 0 0 0 0 0 0 0 0 0 0 0 0 0 0
0 0 0 0 0 0 0 0 0 0 0 0 0 0 0 0 0 0 0 0 0 0 0 0 0 0 0 0 0 0 0 0 0 0 0 0 0 0 0 0 0 0 0
0 0 0 0 0 0 0 0 0 0 0 0 0 0 0 0 0 0 0 0 0 0 0 0 0 0 0 0 0 0 0 0 0 0 0 0 0 0 0 0 0 0 0
0 0 0 0 0 0 0 0 0 0 0 0 0 0 0 0 0 0 0 0 0 0 0 0 0 0 0 0 0 0 0 0 0 0 0 0 0 0 0 0 0 0 0
0 0 0 0 0 0 0 0 0 0 0 0 0 0 0 0 0 0 0 0 0 0 0 0 0 0 0 0 0 0 0 0 0 0 0 0 0 0 0 0 0 0 0
0 0 0 0 0 0 0 0 0 0 0 0 0 0 0 0 0 0 0 0 0 0 0 0 0 0 0 0 0 0 0 0 0 0 0 0 0 0 0 0 0 0 0
0 0 0 0 0 0 0 0 0 0 0 0 0 0 0 0 0 0 0 0 0 0 0 0 0 0 0 0 0 0 0 0 0 0 0 0 0 0 0 0 0 0 0
0 0 0 0 0 0 0 0 0 0 0 0 0 0 0 0 0 0 0 0 0 0 0 0 0 0 0 0 0 0 0 0 0 0 0 0 0 0 0 0 0 0 0
0 0 0 0 0 0 0 0 0 0 0 0 0 0 0 0 0 0 0 0 0 0 0 0 0 0 0 0 0 0 0 0 0 0 0 0 0 0 0 0 0 0 0
0 0 0 0 0 0 0 0 0 0 0 0 0 0 0 0 0 0 0 0 0 0 0 0 0 0 0 0 0 0 0 0 0 0 0 0 0 0 0 0 0 0 0
0 0 0 0 0 0 0 0 0 0 0 0 0 0 0 0 0 0 0 0 0 0 0 0 0 0 0 0 0 0 0 0 0 0 0 0 0 0 0 0 0 0 0
0 0 0 0 0 0 0 0 0 0 0 0 0 0 0 0 0 0 0 0 0 0 0 0 0 0 0 0 0 0 0 0 0 0 0 0 0 0 0 0 0 0 0
0 0 0 0 0 0 0 0 0 0 0 0 0 0 0 0 0 0 0 0 0 0 0 0 0 0 0 0 0 0 0 0 0 0 0 0 0 0 0 0 0 0 0
0 0 0 0 0 0 0 0 0 0 0 0 0 0 0 0 0 0 0 0 0 0 0 0 0 0 0 0 0 0 0 0 0 0 0 0 0 0 0 0 0 0 0
0 0 0 0 0 0 0 0 0 0 0 0 0 0 0 0 0 0 0 0 0 0 0 0 0 0 0 0 0 0 0 0 0 0 0 0 0 0 0 0 0 0 0
0 0 0 0 0 0 0 0 0 0 0 0 0 0 0 0 0 0 0 0 0 0 0 0 0 0 0 0 0 0 0 0 0 0 0 0 0 0 0 0 0 0 0
0 0 0 0 0 0 0 0 0 0 0 0 0 0 0 0 0 0 0 0 0 0 0 0 0 0 0 0 0 0 0 0 0 0 0 0 0 0 0 0 0 0 0
0 0 0 0 0 0 0 0 0 0 0 0 0 0 0 0 0 0 0 0 0 0 0 0 0 0 0 0 0 0 0 0 0 0 0 0 0 0 0 0 0 0 0
0 0 0 0 0 0 0 0 0 0 0 0 0 0 0 0 0 0 0 0 0 0 0 0 0 0 0 0 0 0 0 0 0 0 0 0 0 0 0 0 0 0 0
0 0 0 0 0 0 0 0 0 0 0 0 0 0 0 0 0 0 0 0 0 0 0 0 0 0 0 0 0 0 0 0 0 0 0 0 0 0 0 0 0 0 0
Wind_Speed
3 4 6 5 7 8 8 8 8 8 8 7 8 7 7 8 7 7 7 8 8 8 8 9 8 9 9 9 9 9 9 9 9 9 9 8 8 7 6 4 2 4 7
4 5 6 6 7 8 8 8 8 8 7 7 7 7 7 7 7 7 7 8 8 8 9 9 8 9 9 10 10 10 9 9 9 8 7 7 8 7 7 6 6 6 7
5 6 7 7 7 8 8 7 7 7 7 7 7 7 6 7 7 7 7 8 8 8 8 8 9 9 9 9 9 9 9 9 8 6 3 5 8 9 8 7 7 7 7
5 6 7 8 7 8 8 8 8 7 7 7 7 7 7 7 7 7 7 7 8 8 8 9 9 9 9 9 9 9 9 9 7 3 4 7 8 10 8 7 8 8 8
6 6 8 7 8 8 8 8 8 7 7 7 7 7 8 8 8 7 7 7 7 8 8 8 8 9 9 9 9 9 9 8 5 4 7 7 8 10 9 9 8 8 8
6 6 8 7 8 8 8 7 7 7 8 8 8 8 8 8 8 7 7 8 7 7 7 8 8 9 9 9 9 9 9 6 3 6 6 7 7 9 9 9 9 8 8
7 6 8 7 7 8 7 7 7 7 8 8 8 8 8 8 8 8 8 8 7 7 7 8 8 8 8 9 9 9 8 5 6 6 6 7 9 10 10 10 10 9 8
7 6 8 8 7 7 7 7 7 8 8 8 8 8 8 8 8 8 7 7 7 7 7 8 8 9 9 9 9 9 7 5 6 6 7 8 10 9 10 10 10 10 9
6 6 5 6 7 7 7 7 7 8 8 9 9 9 9 9 8 8 7 7 8 8 8 9 9 10 10 10 9 9 7 5 5 5 7 7 9 9 10 10 10 10 9
6 5 5 5 5 6 6 7 8 8 8 9 9 8 8 8 8 6 7 8 7 8 9 9 9 10 10 10 9 8 4 1 6 6 6 8 9 9 9 10 10 10 9
5 5 4 4 4 4 5 7 6 7 6 6 7 6 3 4 6 5 10 8 8 8 9 9 9 8 8 9 8 4 1 4 7 6 7 10 9 9 9 9 9 10 10
6 5 4 4 4 4 4 4 3 4 4 3 4 4 3 4 4 5 8 7 8 8 9 8 6 5 2 5 6 1 3 6 6 6 8 10 9 9 9 9 9 10 10
5 4 4 4 4 4 3 3 2 2 2 3 3 4 3 3 3 3 3 5 5 4 5 6 4 3 4 5 4 5 6 6 5 6 9 11 9 9 9 10 10 10 10
5 4 4 3 4 4 3 3 2 2 1 2 2 4 3 2 2 3 2 3 3 3 3 3 3 5 5 6 5 6 7 5 5 5 8 12 11 11 11 11 11 11 11
4 4 4 3 3 3 3 1 1 1 1 3 2 2 3 2 2 3 3 3 3 3 3 3 3 5 5 6 5 6 7 7 7 6 6 12 13 12 12 12 12 11 11
5 4 5 4 4 3 3 2 1 1 2 2 2 2 3 3 2 2 3 3 3 3 3 3 4 4 3 4 5 5 6 6 6 6 6 8 12 13 13 12 12 12 11
4 4 4 4 4 3 2 1 1 0 1 2 2 2 2 2 2 2 2 3 3 2 3 2 4 3 3 3 4 5 5 5 5 6 6 4 6 10 12 12 12 12 11
5 5 4 3 4 3 2 2 1 1 1 1 1 1 1 2 2 2 2 2 2 2 2 2 2 2 3 2 3 3 4 3 4 5 4 5 4 4 8 11 11 11 11
5 5 5 5 5 5 3 2 2 1 1 1 1 1 1 1 1 2 1 2 2 2 2 2 2 2 3 3 3 3 3 3 3 3 4 5 5 4 5 7 9 10 11
5 5 5 5 5 5 3 3 2 2 2 1 1 1 1 1 1 2 2 2 2 2 2 2 3 2 1 1 2 3 3 2 2 3 3 4 4 5 5 5 4 6 9
6 6 6 6 5 4 3 3 3 2 2 2 1 2 2 1 1 2 1 2 2 2 2 2 2 3 2 1 2 2 3 2 3 2 2 2 4 4 3 4 3 3 4
7 7 6 6 6 5 3 3 2 2 2 1 1 2 2 2 1 1 2 2 2 2 2 2 2 2 2 2 1 1 2 3 2 2 2 2 2 3 3 4 4 4 4
7 7 6 6 6 6 5 3 3 2 2 3 2 1 1 1 1 1 2 2 2 2 2 2 2 2 2 2 1 2 1 0 1 2 2 1 2 2 2 2 3 4 4
7 6 6 6 6 6 6 5 5 3 3 2 1 2 2 2 1 1 2 2 2 2 2 3 2 2 2 2 1 1 2 2 1 1 2 1 1 2 2 2 3 3 4
5 5 5 6 5 5 5 5 5 4 2 2 2 2 2 2 2 1 2 2 2 2 2 2 2 2 2 1 1 1 1 1 2 1 1 1 1 1 1 2 2 2 3
4 5 5 6 5 5 6 6 6 4 3 3 3 2 2 2 2 2 2 2 2 2 2 2 2 2 2 1 1 1 1 1 1 1 1 1 0 1 1 1 1 2 2
Wind_Direction
98 93 87 93 96 95 95 98 96 92 91 94 98 102 103 101 95 88 84 81 79 78 75 72 73 75 72 69 68 67 66 62 58 56 60 62 60 63 67 62 62 95 87
102 102 97 97 96 95 95 94 92 90 89 89 94 103 103 104 100 91 86 83 82 81 80 77 73 74 71 69 68 65 63 60 57 56 60 75 65 60 66 61 49 66 79
105 106 111 97 96 96 95 91 89 89 88 88 93 101 105 108 105 97 90 87 83 84 85 81 76 73 71 69 67 65 63 60 55 53 50 69 74 63 67 66 67 68 75
105 103 97 98 97 93 89 85 84 84 84 88 93 98 102 105 102 99 95 93 87 85 84 80 73 73 72 69 68 67 65 60 52 21 56 56 59 64 64 67 68 69 70
105 98 95 99 99 93 88 83 78 78 81 87 91 94 96 97 97 95 93 92 90 85 83 81 75 75 75 72 72 69 66 63 58 43 55 56 59 59 61 64 65 68 72
106 96 95 98 98 94 89 86 82 81 82 85 86 88 92 95 95 94 93 89 89 88 87 85 80 77 76 72 73 71 65 58 59 58 56 55 60 59 60 62 64 67 72
107 98 98 94 95 92 91 89 87 86 86 86 85 85 88 93 92 90 88 85 87 88 88 89 87 82 79 77 74 71 63 42 54 62 58 57 57 56 58 60 59 61 67
107 103 103 105 96 91 90 92 89 87 86 87 86 85 86 90 89 87 87 86 87 91 92 91 90 86 82 79 75 71 56 8 64 59 61 62 58 57 57 56 57 57 60
105 104 102 108 108 103 93 87 85 83 83 84 84 83 83 87 88 84 87 86 91 93 90 88 88 85 79 75 74 70 62 15 43 55 61 62 61 61 60 57 54 53 54
114 111 107 104 103 107 108 93 82 81 80 81 81 83 88 96 96 95 98 83 88 92 89 87 87 83 78 74 72 68 59 9 51 60 57 64 60 62 63 60 56 51 50
123 116 109 102 100 100 98 97 98 97 92 109 107 105 126 107 100 101 74 78 84 87 88 87 87 88 93 91 76 66 33 53 63 54 58 56 55 60 63 63 60 56 53
135 124 115 113 107 103 95 97 95 94 97 97 101 110 101 88 78 82 96 88 89 95 100 90 96 121 136 97 100 118 56 58 58 60 59 52 53 59 63 63 61 59 57
133 131 128 125 115 105 103 96 87 87 93 102 105 113 104 101 111 102 113 123 115 123 103 111 126 80 72 65 57 61 53 49 51 56 56 50 50 57 61 62 61 61 59
145 137 135 136 128 120 110 99 101 104 105 102 117 108 106 94 93 94 103 92 100 91 84 78 73 80 74 75 70 66 66 57 55 57 56 48 48 54 57 59 58 58 60
151 151 146 144 133 124 103 94 113 104 109 109 102 112 105 110 103 102 100 100 91 92 102 88 83 79 72 68 66 64 68 62 62 60 65 54 46 48 54 57 56 57 58
167 165 155 161 155 151 143 143 95 93 113 102 110 121 116 110 104 104 104 101 91 87 88 98 88 83 77 72 67 64 62 63 59 61 62 71 58 47 47 51 53 55 56
176 170 160 167 166 163 148 114 97 116 121 115 114 126 122 117 121 112 103 101 96 102 104 89 90 89 88 87 78 66 66 58 57 59 58 52 69 65 50 47 47 50 53
182 170 156 168 172 163 152 153 135 121 99 100 102 97 118 121 111 109 112 104 101 100 101 100 99 103 101 90 76 66 69 70 61 57 62 65 53 55 69 55 46 44 47
181 174 168 171 174 165 159 164 148 148 139 125 123 116 120 123 141 137 125 128 128 127 117 117 106 103 99 93 90 81 68 66 62 60 62 62 64 56 65 79 64 48 43
189 181 175 173 179 165 166 172 154 155 154 135 125 135 127 143 133 122 149 159 139 133 130 130 118 110 99 113 107 94 85 85 76 59 57 62 55 54 49 52 67 74 54
192 193 184 184 178 174 172 180 175 167 161 146 141 145 148 157 144 130 162 149 157 148 143 148 140 143 153 162 154 129 114 87 73 79 58 58 67 57 56 57 43 41 75
193 198 192 190 185 183 180 179 171 160 162 137 144 143 162 159 149 153 178 166 163 156 161 157 162 178 157 204 239 222 170 141 111 87 79 54 56 74 54 50 50 48 36
193 196 198 192 185 186 177 169 156 152 177 168 163 157 158 162 158 175 188 179 171 180 169 178 182 198 195 193 270 298 289 58 121 118 83 80 58 53 56 42 38 34 39
195 195 195 190 186 180 177 181 181 189 191 187 176 166 156 155 163 177 179 182 174 180 172 189 182 198 218 204 183 295 325 8 283 145 138 99 52 36 36 37 28 28 30
188 191 193 185 184 176 180 183 197 198 194 181 178 171 165 142 147 174 183 180 172 179 181 180 183 207 212 234 216 186 179 225 270 267 154 146 141 110 59 34 30 26 28
174 181 184 181 176 176 182 188 199 193 190 178 177 169 169 152 155 168 179 184 181 183 180 184 185 187 212 210 231 208 219 233 237 250 243 210 151 102 104 58 25 34 34